Time,TemperatureF,DewpointF,PressureIn,WindDirection,WindDirectionDegrees,WindSpeedMPH,WindSpeedGustMPH,Humidity,HourlyPrecipIn,Conditions,Clouds,dailyrainin,SoftwareType,DateUTC
2013-07-16 00:01:00,73.0,68.0,30.28,South,180,0.0,-999.0,83,-99.99,,,-99.99,,2013-07-16 04:01:00,
2013-07-16 00:22:00,72.0,67.0,30.28,South,180,0.0,-999.0,84,-99.99,,,-99.99,,2013-07-16 04:22:00,
2013-07-16 00:32:00,72.0,68.0,30.28,South,180,0.0,-999.0,86,-99.99,,,-99.99,,2013-07-16 04:32:00,
2013-07-16 00:43:00,72.0,68.0,30.28,South,180,0.0,-999.0,86,-99.99,,,-99.99,,2013-07-16 04:43:00,
2013-07-16 00:53:00,71.0,66.0,30.28,SSW,196,0.0,-999.0,85,-99.99,,,-99.99,,2013-07-16 04:53:00,
2013-07-16 01:01:00,72.0,67.0,30.28,SSW,200,0.0,-999.0,85,-99.99,,,-99.99,,2013-07-16 05:01:00,
2013-07-16 01:11:00,72.0,67.0,30.28,SSW,200,0.0,-999.0,85,-99.99,,,-99.99,,2013-07-16 05:11:00,
2013-07-16 01:22:00,72.0,67.0,30.28,SSW,201,0.0,-999.0,85,-99.99,,,-99.99,,2013-07-16 05:22:00,
2013-07-16 01:32:00,71.0,67.0,30.28,SSW,201,0.0,-999.0,86,-99.99,,,-99.99,,2013-07-16 05:32:00,
2013-07-16 01:52:00,71.0,67.0,30.28,SSW,201,0.0,-999.0,86,-99.99,,,-99.99,,2013-07-16 05:52:00,
2013-07-16 02:01:00,71.0,67.0,30.28,SSW,201,0.0,-999.0,86,-99.99,,,-99.99,,2013-07-16 06:01:00,
2013-07-16 02:22:00,72.0,68.0,30.27,SSW,201,0.0,-999.0,86,-99.99,,,-99.99,,2013-07-16 06:22:00,
2013-07-16 02:52:00,71.0,67.0,30.27,SSW,201,0.0,-999.0,87,-99.99,,,-99.99,,2013-07-16 06:52:00,
2013-07-16 03:01:00,72.0,68.0,30.27,WNW,296,0.0,-999.0,86,-99.99,,,-99.99,,2013-07-16 07:01:00,
2013-07-16 03:11:00,72.0,68.0,30.27,WNW,296,0.0,-999.0,87,-99.99,,,-99.99,,2013-07-16 07:11:00,
2013-07-16 03:22:00,72.0,68.0,30.27,WNW,296,0.0,-999.0,87,-99.99,,,-99.99,,2013-07-16 07:22:00,
2013-07-16 03:32:00,71.0,67.0,30.27,WNW,296,0.0,-999.0,87,-99.99,,,-99.99,,2013-07-16 07:32:00,
2013-07-16 03:43:00,70.0,66.0,30.27,WNW,296,0.0,-999.0,87,-99.99,,,-99.99,,2013-07-16 07:43:00,
2013-07-16 03:52:00,70.0,66.0,30.27,WNW,296,0.0,-999.0,87,-99.99,,,-99.99,,2013-07-16 07:52:00,
2013-07-16 04:01:00,70.0,66.0,30.27,WNW,296,0.0,-999.0,88,-99.99,,,-99.99,,2013-07-16 08:01:00,
2013-07-16 04:11:00,69.0,66.0,30.26,WNW,296,0.0,-999.0,90,-99.99,,,-99.99,,2013-07-16 08:11:00,
2013-07-16 04:22:00,69.0,66.0,30.26,WNW,296,0.0,-999.0,90,-99.99,,,-99.99,,2013-07-16 08:22:00,
2013-07-16 04:32:00,69.0,66.0,30.26,WNW,296,0.0,-999.0,91,-99.99,,,-99.99,,2013-07-16 08:32:00,
2013-07-16 04:52:00,69.0,66.0,30.26,WNW,296,0.0,-999.0,91,-99.99,,,-99.99,,2013-07-16 08:52:00,
2013-07-16 05:01:00,68.0,66.0,30.26,WNW,296,0.0,-999.0,92,-99.99,,,-99.99,,2013-07-16 09:01:00,
2013-07-16 05:12:00,69.0,66.0,30.26,WNW,296,0.0,-999.0,90,-99.99,,,-99.99,,2013-07-16 09:12:00,
2013-07-16 05:22:00,69.0,66.0,30.26,WNW,296,0.0,-999.0,90,-99.99,,,-99.99,,2013-07-16 09:22:00,
2013-07-16 06:43:00,70.0,66.0,30.26,WNW,303,0.0,-999.0,86,-99.99,,,-99.99,,2013-07-16 10:43:00,
2013-07-16 06:52:00,70.0,66.0,30.26,WNW,303,0.0,-999.0,86,-99.99,,,-99.99,,2013-07-16 10:52:00,
2013-07-16 07:11:00,69.0,65.0,30.27,WNW,303,0.0,-999.0,88,-99.99,,,-99.99,,2013-07-16 11:11:00,
2013-07-16 07:22:00,69.0,66.0,30.27,WNW,303,0.0,-999.0,90,-99.99,,,-99.99,,2013-07-16 11:22:00,
2013-07-16 07:42:00,68.0,65.0,30.27,WNW,303,0.0,-999.0,91,-99.99,,,-99.99,,2013-07-16 11:42:00,
2013-07-16 07:53:00,68.0,66.0,30.28,WNW,303,0.0,-999.0,93,-99.99,,,-99.99,,2013-07-16 11:53:00,
2013-07-16 08:01:00,68.0,66.0,30.28,WNW,303,0.0,-999.0,93,-99.99,,,-99.99,,2013-07-16 12:01:00,
2013-07-16 08:11:00,68.0,66.0,30.28,WNW,303,0.0,-999.0,93,-99.99,,,-99.99,,2013-07-16 12:11:00,
2013-07-16 08:22:00,69.0,67.0,30.28,WNW,303,0.0,-999.0,94,-99.99,,,-99.99,,2013-07-16 12:22:00,
2013-07-16 08:43:00,69.0,67.0,30.28,WNW,303,0.0,-999.0,94,-99.99,,,-99.99,,2013-07-16 12:43:00,
2013-07-16 08:53:00,70.0,68.0,30.29,WNW,303,0.0,-999.0,94,-99.99,,,-99.99,,2013-07-16 12:53:00,
2013-07-16 09:22:00,71.0,68.0,30.29,WNW,303,0.0,-999.0,90,-99.99,,,-99.99,,2013-07-16 13:22:00,
2013-07-16 09:32:00,73.0,70.0,30.29,WNW,302,0.0,-999.0,91,-99.99,,,-99.99,,2013-07-16 13:32:00,
2013-07-16 09:42:00,73.0,70.0,30.29,WNW,302,0.0,-999.0,91,-99.99,,,-99.99,,2013-07-16 13:42:00,
2013-07-16 09:52:00,74.0,71.0,30.29,WSW,257,0.0,-999.0,89,-99.99,,,-99.99,,2013-07-16 13:52:00,
2013-07-16 10:02:00,75.0,71.0,30.29,WSW,256,0.0,-999.0,87,-99.99,,,-99.99,,2013-07-16 14:02:00,
2013-07-16 10:11:00,75.0,71.0,30.29,WSW,256,0.0,-999.0,87,-99.99,,,-99.99,,2013-07-16 14:11:00,
2013-07-16 10:21:00,76.0,70.0,30.29,WSW,245,0.0,-999.0,82,-99.99,,,-99.99,,2013-07-16 14:21:00,
2013-07-16 10:32:00,78.0,71.0,30.28,South,189,0.0,-999.0,80,-99.99,,,-99.99,,2013-07-16 14:32:00,
2013-07-16 10:52:00,79.0,72.0,30.28,South,189,0.0,-999.0,78,-99.99,,,-99.99,,2013-07-16 14:52:00,
2013-07-16 11:22:00,81.0,72.0,30.27,South,188,0.0,-999.0,73,-99.99,,,-99.99,,2013-07-16 15:22:00,
2013-07-16 11:32:00,82.0,72.0,30.27,South,188,0.0,-999.0,73,-99.99,,,-99.99,,2013-07-16 15:32:00,
2013-07-16 12:11:00,85.0,73.0,30.27,South,188,0.0,-999.0,67,-99.99,,,-99.99,,2013-07-16 16:11:00,
2013-07-16 12:22:00,85.0,73.0,30.27,South,188,0.0,-999.0,67,-99.99,,,-99.99,,2013-07-16 16:22:00,
2013-07-16 12:43:00,87.0,72.0,30.26,SE,140,0.0,-999.0,62,-99.99,,,-99.99,,2013-07-16 16:43:00,
2013-07-16 12:52:00,87.0,72.0,30.26,SE,140,0.0,-999.0,62,-99.99,,,-99.99,,2013-07-16 16:52:00,
2013-07-16 13:22:00,87.0,73.0,30.25,SSE,159,0.0,-999.0,63,-99.99,,,-99.99,,2013-07-16 17:22:00,
2013-07-16 13:33:00,87.0,73.0,30.25,WNW,296,0.0,-999.0,63,-99.99,,,-99.99,,2013-07-16 17:33:00,
2013-07-16 13:43:00,88.0,70.0,30.24,West,277,0.0,-999.0,56,-99.99,,,-99.99,,2013-07-16 17:43:00,
2013-07-16 13:53:00,88.0,70.0,30.24,West,277,0.0,-999.0,56,-99.99,,,-99.99,,2013-07-16 17:53:00,
2013-07-16 14:01:00,89.0,74.0,30.24,WSW,242,0.0,-999.0,62,-99.99,,,-99.99,,2013-07-16 18:01:00,
2013-07-16 14:33:00,89.0,75.0,30.22,South,183,0.0,-999.0,64,-99.99,,,-99.99,,2013-07-16 18:33:00,
2013-07-16 14:43:00,89.0,75.0,30.22,South,184,0.0,-999.0,63,-99.99,,,-99.99,,2013-07-16 18:43:00,
2013-07-16 14:52:00,89.0,75.0,30.22,South,184,0.0,-999.0,63,-99.99,,,-99.99,,2013-07-16 18:52:00,
2013-07-16 15:01:00,89.0,73.0,30.22,South,183,0.0,-999.0,59,-99.99,,,-99.99,,2013-07-16 19:01:00,
2013-07-16 15:22:00,89.0,72.0,30.21,South,191,0.0,-999.0,57,-99.99,,,-99.99,,2013-07-16 19:22:00,
2013-07-16 15:32:00,90.0,74.0,30.22,South,186,0.0,-999.0,59,-99.99,,,-99.99,,2013-07-16 19:32:00,
2013-07-16 15:43:00,90.0,75.0,30.21,South,186,0.0,-999.0,61,-99.99,,,-99.99,,2013-07-16 19:43:00,
2013-07-16 15:52:00,90.0,75.0,30.21,South,186,0.0,-999.0,61,-99.99,,,-99.99,,2013-07-16 19:52:00,
2013-07-16 16:12:00,90.0,74.0,30.21,South,186,0.0,-999.0,60,-99.99,,,-99.99,,2013-07-16 20:12:00,
2013-07-16 16:22:00,90.0,74.0,30.21,South,186,0.0,-999.0,60,-99.99,,,-99.99,,2013-07-16 20:22:00,
2013-07-16 16:43:00,89.0,74.0,30.19,South,186,0.0,-999.0,62,-99.99,,,-99.99,,2013-07-16 20:43:00,
2013-07-16 16:52:00,89.0,74.0,30.19,South,186,0.0,-999.0,62,-99.99,,,-99.99,,2013-07-16 20:52:00,
2013-07-16 17:11:00,89.0,73.0,30.20,South,169,0.0,-999.0,60,-99.99,,,-99.99,,2013-07-16 21:11:00,
2013-07-16 17:22:00,88.0,75.0,30.19,SE,136,0.0,-999.0,65,-99.99,,,-99.99,,2013-07-16 21:22:00,
2013-07-16 17:43:00,86.0,75.0,30.20,SE,136,0.0,-999.0,69,-99.99,,,-99.99,,2013-07-16 21:43:00,
2013-07-16 17:52:00,83.0,75.0,30.20,SE,136,0.0,-999.0,76,-99.99,,,-99.99,,2013-07-16 21:52:00,
2013-07-16 18:11:00,82.0,75.0,30.20,SE,136,0.0,-999.0,79,-99.99,,,-99.99,,2013-07-16 22:11:00,
2013-07-16 18:22:00,81.0,75.0,30.20,SE,136,0.0,-999.0,81,-99.99,,,-99.99,,2013-07-16 22:22:00,
2013-07-16 18:43:00,80.0,72.0,30.19,SE,136,0.0,-999.0,78,-99.99,,,-99.99,,2013-07-16 22:43:00,
2013-07-16 18:52:00,80.0,72.0,30.19,SE,136,0.0,-999.0,78,-99.99,,,-99.99,,2013-07-16 22:52:00,
2013-07-16 19:22:00,82.0,75.0,30.19,SE,136,0.0,-999.0,80,-99.99,,,-99.99,,2013-07-16 23:22:00,
2013-07-16 19:32:00,82.0,74.0,30.20,SE,136,0.0,-999.0,78,-99.99,,,-99.99,,2013-07-16 23:32:00,
2013-07-16 19:43:00,81.0,75.0,30.21,SE,136,0.0,-999.0,83,-99.99,,,-99.99,,2013-07-16 23:43:00,
2013-07-16 19:52:00,81.0,75.0,30.21,SE,136,0.0,-999.0,83,-99.99,,,-99.99,,2013-07-16 23:52:00,
2013-07-16 20:01:00,79.0,74.0,30.21,SE,136,0.0,-999.0,85,-99.99,,,-99.99,,2013-07-17 00:01:00,
2013-07-16 20:11:00,79.0,74.0,30.21,SE,136,0.0,-999.0,85,-99.99,,,-99.99,,2013-07-17 00:11:00,
2013-07-16 20:22:00,78.0,73.0,30.20,SE,136,0.0,-999.0,86,-99.99,,,-99.99,,2013-07-17 00:22:00,
2013-07-16 20:33:00,78.0,73.0,30.20,SE,136,0.0,-999.0,86,-99.99,,,-99.99,,2013-07-17 00:33:00,
2013-07-16 20:42:00,78.0,74.0,30.21,SE,136,0.0,-999.0,87,-99.99,,,-99.99,,2013-07-17 00:42:00,
2013-07-16 20:52:00,78.0,74.0,30.21,SE,136,0.0,-999.0,87,-99.99,,,-99.99,,2013-07-17 00:52:00,
2013-07-16 21:01:00,77.0,73.0,30.22,SE,136,0.0,-999.0,87,-99.99,,,-99.99,,2013-07-17 01:01:00,
2013-07-16 21:11:00,78.0,73.0,30.22,WNW,282,0.0,-999.0,86,-99.99,,,-99.99,,2013-07-17 01:11:00,
2013-07-16 21:22:00,78.0,73.0,30.22,WNW,282,0.0,-999.0,86,-99.99,,,-99.99,,2013-07-17 01:22:00,
2013-07-16 21:32:00,78.0,72.0,30.22,North,351,0.0,-999.0,82,-99.99,,,-99.99,,2013-07-17 01:32:00,
2013-07-16 21:43:00,77.0,71.0,30.21,North,351,0.0,-999.0,83,-99.99,,,-99.99,,2013-07-17 01:43:00,
2013-07-16 21:53:00,77.0,71.0,30.21,North,351,0.0,-999.0,83,-99.99,,,-99.99,,2013-07-17 01:53:00,
2013-07-16 22:01:00,76.0,70.0,30.21,WSW,250,0.0,-999.0,82,-99.99,,,-99.99,,2013-07-17 02:01:00,
2013-07-16 22:11:00,76.0,70.0,30.21,WSW,250,0.0,-999.0,82,-99.99,,,-99.99,,2013-07-17 02:11:00,
2013-07-16 22:22:00,76.0,69.0,30.22,WNW,282,0.0,-999.0,78,-99.99,,,-99.99,,2013-07-17 02:22:00,
2013-07-16 22:43:00,77.0,69.0,30.21,WNW,284,0.0,-999.0,76,-99.99,,,-99.99,,2013-07-17 02:43:00,
2013-07-16 22:53:00,77.0,69.0,30.21,WNW,284,0.0,-999.0,76,-99.99,,,-99.99,,2013-07-17 02:53:00,
2013-07-16 23:11:00,77.0,69.0,30.21,SW,216,0.0,-999.0,77,-99.99,,,-99.99,,2013-07-17 03:11:00,
2013-07-16 23:22:00,77.0,70.0,30.21,SW,216,0.0,-999.0,80,-99.99,,,-99.99,,2013-07-17 03:22:00,
2013-07-16 23:53:00,74.0,69.0,30.21,WNW,297,0.0,-999.0,85,-99.99,,,-99.99,,2013-07-17 03:53:00,